Regional Weather Roundup
Issued by NWS

Home | Current Version | Previous Version | Graphics & Text | Print | Product List | Glossary On
Versions: 1 2 3 4 5 6 7 8 9 10 11 12 13 14 15 16 17 18 19 20 21 22 23 24 25 26 27 28 29 30 31 32 33 34 35 36 37 38 39 40 41 42 43 44 45 46 47 48 49 50
922
ASUS43 KMKX 210321
RWRWI

WISCONSIN REGIONAL WEATHER ROUNDUP
NATIONAL WEATHER SERVICE MILWAUKEE/SULLIVAN WI
900 PM CST MON FEB 20 2017

NOTE: "FAIR" INDICATES FEW OR NO CLOUDS BELOW 12,000 FEET WITH NO
SIGNIFICANT WEATHER AND/OR OBSTRUCTIONS TO VISIBILITY.

WIZ001-002-006>008-014>016-023>028-210400-
NORTHWEST WISCONSIN

CITY           SKY/WX    TMP DP  RH WIND       PRES   REMARKS
SUPERIOR ARPT  DRIZZLE   37  37 100 N3        29.61F
ASHLAND        CLOUDY    50  48  93 S10G20    29.63F
HAYWARD        LGT RAIN  50  48  93 S8        29.66F
SIREN          CLOUDY    51  50  97 S10G16    29.65F
CUMBERLAND     FOG       46  45  93 S9        29.67F VSB 1/2
RICE LAKE      CLOUDY    49  49  97 CALM      29.70F FOG
CHETEK         LGT RAIN  50  50 100 S6        29.70F
LADYSMITH      DRIZZLE   51  50  98 S10       29.71F
EAU CLAIRE     CLOUDY    52  52 100 SW8       29.72R
MENOMONIE      CLOUDY    53  53 100 S9        29.71F
NEW RICHMOND   CLOUDY    51  51 100 SW10G18   29.69S FOG
OSCEOLA        CLOUDY    54  54 100 S9        29.71S
$$

WIZ003>005-009-010-017-018-210400-
NORTH CENTRAL WISCONSIN

CITY           SKY/WX    TMP DP  RH WIND       PRES   REMARKS
MANITOWISH WTR LGT RAIN  44  44 100 S9        29.72F
ARBOR VITAE    LGT RAIN  46  45  96 S14       29.74S
WOODRUFF       LGT RAIN  46  45  96 S14       29.74S
RHINELANDER    LGT RAIN  48  48 100 S15G21    29.77R FOG
EAGLE RIVER    RAIN      46  46 100 SW9G17    29.76R
LAND O LAKES   RAIN      46  46  99 S10G17    29.76S
PHILLIPS       LGT RAIN  49  49 100 S8        29.70F
TOMAHAWK       LGT RAIN  46  45  97 CALM      29.77F VSB 1
MEDFORD        LGT RAIN  44  44  99 S9        29.76F VSB<1/4
MERRILL        NOT AVBL
$$

WIZ029-030-035-036-043>047-210400-
CENTRAL WISCONSIN

CITY           SKY/WX    TMP DP  RH WIND       PRES   REMARKS
WAUSAU         LGT RAIN  47  47 100 S8        29.78S FOG
MOSINEE        RAIN      46  46 100 S10       29.80S VSB 1/4
MARSHFIELD     LGT RAIN  51  50  96 S8        29.77F VSB 3/4
STEVENS POINT  LGT RAIN  47  47 100 S12       29.81S
WAUPACA        RAIN      50  48  93 S5        29.83R
WAUTOMA        LGT RAIN  52  50  93 SW6       29.84R FOG
WISC RAPIDS    LGT RAIN  54  54 100 SW12      29.82R FOG
CAMP DOUGLAS   LGT RAIN  55  55 100 S7        29.79F
$$

WIZ011>013-019>022-031-037>040-048>050-210400-
NORTHEAST WISCONSIN

CITY           SKY/WX    TMP DP  RH WIND       PRES   REMARKS
ANTIGO         LGT RAIN  43  43 100 S15       29.80S
SHAWANO        RAIN      50  47  89 S5        29.81F
OCONTO         CLOUDY    44  40  86 S13G20    29.84F
STURGEON BAY   LGT RAIN  47  39  74 SE20G28   29.85F
GREEN BAY      LGT RAIN  51  46  83 SE20      29.83F
MANITOWOC      CLOUDY    45  38  76 MISG      29.89F
APPLETON       LGT RAIN  48  41  76 S13G21    29.82F
CLINTONVILLE   RAIN      46  45  93 S7        29.82S
OSHKOSH        CLOUDY    51  45  79 S12       29.82F
$$

WIZ032>034-041-042-053>061-210400-
SOUTHWEST WISCONSIN

CITY           SKY/WX    TMP DP  RH WIND       PRES   REMARKS
LA CROSSE      LGT RAIN  55  53  93 S15       29.77S
SPARTA         DRIZZLE   55  54  98 S8        29.79F
VIROQUA        CLOUDY    55  55 100 S14G21    29.81S
BOSCOBEL       CLOUDY    58  56  93 S8        29.84F
PRAIRIE DU CHI RAIN      55  54  96 S9        29.83F
PLATTEVILLE    CLOUDY    55  55 100 S12       29.88R
$$

WIZ056-057-062-063-064-067-068-210400-
SOUTH CENTRAL WISCONSIN

CITY           SKY/WX    TMP DP  RH WIND       PRES   REMARKS
REEDSBURG      RAIN      55  55 100 S9        29.84S
BARABOO/DELLS  RAIN      55  53  94 SW10      29.84S
LONE ROCK      LGT RAIN  57  55  93 CALM      29.86R FOG
MINERAL POINT  LGT RAIN  55  55 100 S8        29.87R
MADISON        LGT RAIN  57  52  83 S9        29.86R
MIDDLETON        N/A     57  55  94 SW7       29.87R
WATERTOWN      CLOUDY    55  49  81 S8        29.86S
MONROE         DRIZZLE   54  52  94 S10       29.88S
JANESVILLE     CLOUDY    63  50  63 S16G26    29.87S
$$

WIZ051-052-058>065-066-070>072-210400-
SOUTHEAST WISCONSIN

CITY           SKY/WX    TMP DP  RH WIND       PRES   REMARKS
MILWAUKEE      CLOUDY    58  42  55 S20G30    29.91F
WAUKESHA       CLOUDY    54  43  66 SE13      29.90F
MILWAUKEE/TIMM CLOUDY    57  39  51 S17G24    29.90F
RACINE         CLOUDY    51  39  63 S17G25    29.93F
KENOSHA        CLOUDY    57  43  59 S14       29.91F
FOND DU LAC    LGT RAIN  54  44  69 S13       29.83F
SHEBOYGAN      CLOUDY    48  40  73 S17G28    29.89F
WEST BEND      CLOUDY    55  43  62 S10G17    29.88F
JUNEAU         RAIN      53  47  80 SE17      29.87S
$$

LSZ147-162-210400-
LAKE SUPERIOR

STATION/POSITION TIME  TEMP    WIND        PRES    WAVE
                       AIR SEA DIR/SP/G            HT/PER
                 (UTC) (F)     (DEG/KT/KT) (MB)    (FT/S)
DEVILS ISLAND    0300   48     180/  5/  8 1002.7F
PORT WING        0230   35     340/  2/  2 1003.0F
SAXON HARBOR     0240   52     200/  9/ 18 1004.1R
$$

LMZ867-665-643>646-210400-
LAKE MICHIGAN

STATION/POSITION TIME  TEMP    WIND        PRES    WAVE
                       AIR SEA DIR/SP/G            HT/PER
                 (UTC) (F)     (DEG/KT/KT) (MB)    (FT/S)
CHAMBERS ISLAND  0240   46     120/ 11/ 22 1010.2F
NORTHPORT PIER   0240   42     150/ 15/ 19 1011.5F
SISTER BAY       0235   42     160/ 19/ 26   N/A
KEWAUNEE LAKESHO 0254   39     170/ 11/ 13 1011.6F
SHEBOYGAN LAKESH 0300   41     180/ 14/ 14 1012.6F
PORT WASHINGTON  0240   43     180/  6/  7 1013.9F
MILWAUKEE LAKESH 0300   44     150/ 16/ 18   N/A
KENOSHA   LAKESH 0300   41     170/ 16/ 20 1013.2
$$

TC  - TEMPERATURE IN CELSIUS
VSB - VISIBILITY IN STATUTE MILES
WCI - WIND CHILL INDEX
HX  - HEAT INDEX





USA.gov is the U.S. government's official web portal to all federal, state and local government web resources and services.